Overview Statistics Trail Chart Weather Telemetry Raw packets
 

This is the latest recevied weather packets stored in our database for station/object 9W2XPF-13. If no packets are shown the sender has not sent any weather packets the latest 10 day(s).

<< 183 184 185 186 187 >>
Time Temp. Humidity Pressure Rain* Wind** Luminosity Snow
1776927362 32.22° C 70% 1005.6 hPa 0 mm - - -
1776927242 32.78° C 70% 1005.6 hPa 0 mm - - -
1776927122 32.78° C 69% 1005.7 hPa 0 mm - - -
1776927002 32.78° C 68% 1005.6 hPa 0 mm - - -
1776926882 32.78° C 67% 1005.8 hPa 0 mm - - -
1776926763 33.33° C 66% 1005.6 hPa 0 mm - - -
1776926642 33.33° C 66% 1005.8 hPa 0 mm - - -
1776926522 33.33° C 66% 1005.9 hPa 0 mm - - -
1776926402 33.33° C 65% 1006 hPa 0 mm - - -
1776926282 33.33° C 66% 1005.9 hPa 0 mm - - -
1776926162 33.33° C 65% 1005.9 hPa 0 mm - - -
1776926042 33.33° C 66% 1006 hPa 0 mm - - -
1776925922 33.33° C 65% 1005.9 hPa 0 mm - - -
1776925803 33.33° C 64% 1006.1 hPa 0 mm - - -
1776925682 33.33° C 64% 1006 hPa 0 mm - - -
1776925562 33.33° C 68% 1005.8 hPa 0 mm - - -
1776925442 33.33° C 66% 1006 hPa 0 mm - - -
1776925322 32.78° C 64% 1006 hPa 0 mm - - -
1776925202 32.78° C 66% 1005.9 hPa 0 mm - - -
1776925082 33.33° C 66% 1006.2 hPa 0 mm - - -
1776924962 33.33° C 68% 1006.5 hPa 0 mm - - -
1776924842 33.33° C 67% 1006.4 hPa 0 mm - - -
1776924722 33.33° C 66% 1006.4 hPa 0 mm - - -
1776924602 33.33° C 66% 1006.4 hPa 0 mm - - -
1776924482 32.78° C 67% 1006.4 hPa 0 mm - - -

* Rain latest hour (hover to see other rain measurements)
** Current wind speed in m/s (hover to see current wind gust speed)